When you browse on this site, cookies collect data to enhance your experience and personalize the content and advertising you see.
Visit our Privacy Policy to learn more. By continuing to use the site, you agree to this use of cookies and data.
  • In Sweden
  • List of Countries
  • For 7 days
  • Water Temperature
  • Weather Map
  • Weather Widgets
  • user-avatar
    Login

    Hourly Weather Aguilon

    Today, 30 March, Monday

    Time Temperature Precipitation Wind Pressure Humidity
    00:00 +3°C° 0 mm 6 mps 695 mmHg 72%
    01:00 +3°C° 0 mm 7 mps 695 mmHg 74%
    02:00 +2°C° 0 mm 7 mps 695 mmHg 77%
    03:00 +1°C° 0 mm 8 mps 694 mmHg 79%
    04:00 0°C° 0 mm 8 mps 694 mmHg 77%
    05:00 -1°C° 0 mm 9 mps 694 mmHg 75%
    06:00 -3°C° 0 mm 9 mps 694 mmHg 73%
    07:00 -1°C° 0 mm 9 mps 694 mmHg 68%
    08:00 -2°C° 0 mm 10 mps 695 mmHg 63%
    09:00 -2°C° 0 mm 10 mps 695 mmHg 58%
    10:00 +1°C° 0 mm 9 mps 695 mmHg 54%
    11:00 +2°C° 0 mm 9 mps 695 mmHg 50%
    12:00 +4°C° 0 mm 8 mps 695 mmHg 46%
    13:00 +4°C° 0 mm 8 mps 695 mmHg 45%
    14:00 +4°C° 0 mm 8 mps 694 mmHg 44%
    15:00 +4°C° 0 mm 7 mps 694 mmHg 42%
    16:00 +4°C° 0 mm 6 mps 694 mmHg 44%
    17:00 +3°C° 0 mm 6 mps 694 mmHg 45%
    18:00 +3°C° 0 mm 5 mps 694 mmHg 46%
    19:00 +2°C° 0 mm 5 mps 694 mmHg 50%
    20:00 +1°C° 0 mm 5 mps 694 mmHg 53%
    21:00 +1°C° 0 mm 4 mps 694 mmHg 56%
    22:00 0°C° 0 mm 4 mps 694 mmHg 60%
    23:00 0°C° 0 mm 4 mps 694 mmHg 64%

    Tomorrow, 31 March, Tuesday

    Time Temperature Precipitation Wind Pressure Humidity
    00:00 0°C° 0 mm 3 mps 694 mmHg 67%
    01:00 0°C° 0 mm 3 mps 693 mmHg 71%
    02:00 -1°C° 0 mm 2 mps 693 mmHg 76%
    03:00 -1°C° 0 mm 2 mps 692 mmHg 80%
    04:00 -1°C° 0.1 mm 2 mps 692 mmHg 80%
    05:00 -1°C° 0.1 mm 2 mps 692 mmHg 80%
    06:00 +2°C° 0.1 mm 1 mps 692 mmHg 81%
    07:00 +2°C° 0.2 mm 1 mps 692 mmHg 82%
    08:00 +2°C° 0.2 mm 1 mps 692 mmHg 84%
    09:00 +3°C° 0.2 mm 1 mps 693 mmHg 85%
    10:00 +3°C° 0.6 mm 1 mps 693 mmHg 87%
    11:00 +4°C° 0.6 mm 1 mps 693 mmHg 88%
    12:00 +4°C° 0.6 mm 1 mps 693 mmHg 90%
    13:00 +4°C° 0.4 mm 1 mps 693 mmHg 91%
    14:00 +5°C° 0.4 mm 1 mps 693 mmHg 91%
    15:00 +5°C° 0.4 mm 1 mps 693 mmHg 92%
    16:00 +5°C° 0.3 mm 1 mps 693 mmHg 93%
    17:00 +5°C° 0.3 mm 1 mps 693 mmHg 94%
    18:00 +5°C° 0.3 mm 2 mps 693 mmHg 95%
    19:00 +5°C° 0.1 mm 2 mps 693 mmHg 95%
    20:00 +6°C° 0.1 mm 1 mps 694 mmHg 96%
    21:00 +6°C° 0.1 mm 1 mps 694 mmHg 97%
    22:00 +5°C° 0 mm 2 mps 694 mmHg 97%
    23:00 +6°C° 0 mm 2 mps 694 mmHg 97%

    Day after tomorrow, 1 April, Wednesday

    Time Temperature Precipitation Wind Pressure Humidity
    00:00 +6°C° 0 mm 2 mps 694 mmHg 97%
    01:00 +6°C° 0.1 mm 2 mps 694 mmHg 97%
    02:00 +6°C° 0.1 mm 2 mps 694 mmHg 97%
    03:00 +6°C° 0.1 mm 2 mps 693 mmHg 97%
    04:00 +5°C° 0.3 mm 3 mps 694 mmHg 97%
    05:00 +5°C° 0.3 mm 4 mps 694 mmHg 97%
    06:00 +6°C° 0.3 mm 4 mps 694 mmHg 97%
    07:00 +6°C° 0.6 mm 5 mps 694 mmHg 96%
    08:00 +6°C° 0.6 mm 5 mps 694 mmHg 95%
    09:00 +5°C° 0.6 mm 6 mps 694 mmHg 94%
    10:00 +6°C° 0.5 mm 5 mps 694 mmHg 93%
    11:00 +6°C° 0.5 mm 5 mps 694 mmHg 93%
    12:00 +6°C° 0.5 mm 5 mps 694 mmHg 92%
    13:00 +6°C° 1 mm 4 mps 694 mmHg 92%
    14:00 +6°C° 1 mm 4 mps 694 mmHg 92%
    15:00 +6°C° 1 mm 4 mps 693 mmHg 91%
    16:00 +6°C° 0.3 mm 4 mps 694 mmHg 92%
    17:00 +7°C° 0.3 mm 3 mps 694 mmHg 93%
    18:00 +7°C° 0.3 mm 3 mps 694 mmHg 94%
    19:00 +7°C° 0.1 mm 2 mps 694 mmHg 95%
    20:00 +7°C° 0.1 mm 2 mps 694 mmHg 95%
    21:00 +8°C° 0.1 mm 1 mps 695 mmHg 95%
    22:00 +8°C° 0 mm 1 mps 695 mmHg 95%
    23:00 +7°C° 0 mm 1 mps 695 mmHg 96%

    2 April, Thursday

    Time Temperature Precipitation Wind Pressure Humidity
    00:00 +7°C° 0 mm 1 mps 695 mmHg 96%
    01:00 +6°C° 0 mm 0 mps 694 mmHg 96%
    02:00 +6°C° 0 mm 0 mps 694 mmHg 97%
    03:00 +6°C° 0 mm 0 mps 693 mmHg 97%
    04:00 +6°C° 0 mm 0 mps 694 mmHg 96%
    05:00 +6°C° 0 mm 0 mps 694 mmHg 95%
    06:00 +7°C° 0 mm 1 mps 694 mmHg 94%
    07:00 +8°C° 0 mm 1 mps 694 mmHg 89%
    08:00 +8°C° 0 mm 1 mps 694 mmHg 84%
    09:00 +9°C° 0 mm 1 mps 694 mmHg 80%
    10:00 +10°C° 0 mm 1 mps 694 mmHg 76%
    11:00 +11°C° 0 mm 1 mps 694 mmHg 72%
    12:00 +10°C° 0 mm 2 mps 694 mmHg 68%
    13:00 +12°C° 0.1 mm 2 mps 694 mmHg 66%
    14:00 +12°C° 0.1 mm 2 mps 693 mmHg 64%
    15:00 +13°C° 0.1 mm 2 mps 693 mmHg 62%
    16:00 +13°C° 0.1 mm 2 mps 693 mmHg 65%
    17:00 +12°C° 0.1 mm 1 mps 693 mmHg 68%
    18:00 +12°C° 0.1 mm 1 mps 693 mmHg 71%
    19:00 +11°C° 0 mm 1 mps 693 mmHg 76%
    20:00 +10°C° 0 mm 1 mps 694 mmHg 80%
    21:00 +9°C° 0 mm 1 mps 694 mmHg 85%
    22:00 +9°C° 0.1 mm 1 mps 694 mmHg 86%
    23:00 +8°C° 0.1 mm 1 mps 694 mmHg 87%

    3 April, Friday

    Time Temperature Precipitation Wind Pressure Humidity
    00:00 +7°C° 0.1 mm 0 mps 694 mmHg 88%
    01:00 +8°C° 0.1 mm 1 mps 694 mmHg 89%
    02:00 +8°C° 0.1 mm 1 mps 694 mmHg 91%
    03:00 +8°C° 0.1 mm 1 mps 693 mmHg 92%
    04:00 +7°C° 0.1 mm 1 mps 693 mmHg 92%
    05:00 +6°C° 0.1 mm 2 mps 694 mmHg 93%
    06:00 +6°C° 0.1 mm 2 mps 694 mmHg 94%
    07:00 +7°C° 0.1 mm 2 mps 694 mmHg 91%
    08:00 +7°C° 0.1 mm 3 mps 694 mmHg 88%
    09:00 +7°C° 0.1 mm 3 mps 694 mmHg 85%
    10:00 +8°C° 0.1 mm 3 mps 694 mmHg 83%
    11:00 +9°C° 0.1 mm 2 mps 694 mmHg 80%
    12:00 +9°C° 0.1 mm 2 mps 695 mmHg 77%
    13:00 +10°C° 0 mm 2 mps 695 mmHg 72%
    14:00 +12°C° 0 mm 2 mps 695 mmHg 67%
    15:00 +13°C° 0 mm 2 mps 694 mmHg 61%
    16:00 +13°C° 0 mm 2 mps 694 mmHg 63%
    17:00 +11°C° 0 mm 3 mps 695 mmHg 66%
    18:00 +11°C° 0 mm 4 mps 695 mmHg 68%
    19:00 +10°C° 0 mm 3 mps 695 mmHg 71%
    20:00 +9°C° 0 mm 3 mps 695 mmHg 73%
    21:00 +8°C° 0 mm 3 mps 696 mmHg 76%
    22:00 +7°C° 0 mm 3 mps 696 mmHg 74%
    23:00 +7°C° 0 mm 3 mps 696 mmHg 72%

    4 April, Saturday

    Time Temperature Precipitation Wind Pressure Humidity
    00:00 +7°C° 0 mm 3 mps 696 mmHg 70%
    01:00 +6°C° 0 mm 2 mps 696 mmHg 70%
    02:00 +6°C° 0 mm 2 mps 695 mmHg 70%
    03:00 +5°C° 0 mm 2 mps 695 mmHg 70%
    04:00 +5°C° 0 mm 2 mps 695 mmHg 73%
    05:00 +5°C° 0 mm 2 mps 695 mmHg 76%
    06:00 +4°C° 0 mm 2 mps 695 mmHg 79%
    07:00 +5°C° 0 mm 3 mps 696 mmHg 72%
    08:00 +7°C° 0 mm 4 mps 696 mmHg 66%
    09:00 +9°C° 0 mm 5 mps 696 mmHg 59%
    10:00 +10°C° 0 mm 6 mps 696 mmHg 56%
    11:00 +11°C° 0 mm 7 mps 696 mmHg 53%
    12:00 +12°C° 0 mm 8 mps 696 mmHg 50%
    13:00 +12°C° 0 mm 8 mps 696 mmHg 53%
    14:00 +12°C° 0 mm 8 mps 696 mmHg 56%
    15:00 +11°C° 0 mm 8 mps 695 mmHg 59%
    16:00 +10°C° 0 mm 7 mps 695 mmHg 66%
    17:00 +9°C° 0 mm 7 mps 695 mmHg 74%
    18:00 +8°C° 0 mm 7 mps 695 mmHg 82%
    19:00 +8°C° 0.2 mm 6 mps 695 mmHg 84%
    20:00 +8°C° 0.2 mm 6 mps 696 mmHg 87%
    21:00 +8°C° 0.2 mm 6 mps 697 mmHg 89%
    22:00 +6°C° 0.4 mm 7 mps 697 mmHg 89%
    23:00 +6°C° 0.4 mm 7 mps 697 mmHg 90%
    Show more